Regional Weather Roundup
Issued by NWS

Home | Current Version | Previous Version | Text Only | Print | Product List | Glossary On
Versions: 1 2 3 4 5 6 7 8 9 10 11 12 13 14 15 16 17 18 19 20 21 22 23 24 25 26 27 28 29 30 31 32 33 34 35 36 37 38 39 40 41 42 43 44 45 46 47 48 49 50
000
ASUS43 KLSX 282010
RWRMO

WEATHER SUMMARY FOR MISSOURI
NATIONAL WEATHER SERVICE SPRINGFIELD MO
300 PM CDT THU APR 28 2016

NOTE: "FAIR" INDICATES FEW OR NO CLOUDS BELOW 12,000 FEET WITH NO
       SIGNIFICANT WEATHER AND/OR OBSTRUCTIONS TO VISIBILITY.
       CURRENT SKY AND/OR WEATHER CONDITIONS ARE NOT AVAILABLE FOR
       CHILLICOTHE AND FARMINGTON.

MOZ001>031-035>038-043-044-053-054-282100-
...NORTHERN AND WESTERN MISSOURI...

CITY           SKY/WX    TMP DP  RH WIND       PRES   REMARKS
KANSAS CTY INT CLOUDY    55  46  71 NW10      29.98R
KANSAS C DTWN  PTSUNNY   60  47  61 NW12G18   29.97R
LEE`S SUMMIT   PTSUNNY   61  48  62 NW8G18    29.96R
ST JOSEPH      CLOUDY    56  46  69 NW8       29.98R
CHILLICOTHE      N/A     57  48  72 W8G18     29.96R
KIRKSVILLE     CLOUDY    57  47  69 SW9G17    29.93R

$$
MOZ066>068-077>081-088>096-101>105-282100-
...SOUTHWEST MISSOURI...

CITY           SKY/WX    TMP DP  RH WIND       PRES   REMARKS
SPRINGFIELD    CLOUDY    69  42  37 W7        29.96R
JOPLIN         CLOUDY    67  47  48 NW6       29.98R
BRANSON        MOSUNNY   73  39  29 NW8       29.98R

$$
MOZ032>034-039>042-045>050-055>058-069>072-282100-
...CENTRAL MISSOURI...

CITY           SKY/WX    TMP DP  RH WIND       PRES   REMARKS
COLUMBIA       MOSUNNY   64  50  60 W12       29.93R
JEFFERSON CITY MOSUNNY   67  49  52 NW9G20    29.92R
ROLLA          SUNNY     69  49  48 W10       29.91R
SEDALIA        MOSUNNY   63  51  65 NW9       29.95S
WHITEMAN AFB   MOSUNNY   63  50  62 VRB5      29.95R
WARRENSBURG    PTSUNNY   63  48  59 W5        29.95S
OSAGE BEACH    SUNNY     70  45  40 SW13      29.93S

$$
MOZ051-052-059>065-282100-
...EAST CENTRAL MISSOURI...

CITY           SKY/WX    TMP DP  RH WIND       PRES   REMARKS
ST LOUIS INTL  MOSUNNY   72  48  42 W10       29.90R
SPIRIT OF STL  MOSUNNY   70  51  51 W8        29.89R
ST CHARLES     SUNNY     69  50  50 W14G23    29.89R

$$
MOZ072>076-082>087-097>100-106>115-282100-
...SOUTH CENTRAL AND SOUTHEAST MISSOURI...

CITY           SKY/WX    TMP DP  RH WIND       PRES   REMARKS
CAPE GIRARDEAU MOSUNNY   76  47  35 W12       29.90S
FARMINGTON     SUNNY     74  47  38 W12       29.91S
POPLAR BLUFF   SUNNY     78  45  30 W7        29.90F
WEST PLAINS    SUNNY     76  41  28 VRB5      29.95S

$$



USA.gov is the U.S. government's official web portal to all federal, state and local government web resources and services.